Retour au catalogue

STARLINK-35899

ActifCommunicationsVLEO
NORAD 66497·PAYLOAD·🇺🇸 United States

Lancé Nov 15, 2025 depuis Cape Canaveral Space Force Station

Loading…

Prochains Passages (prochaines 24 heures)

TLE

FraisSource: CelesTrak SupGP

Époque: Sep 14, 2026, 22:37 UTC

1 66497C 25263N   26257.94284722 -.00010418  00000+0 -37729-3 0  2573
2 66497  43.0036   1.6601 0001579 275.7348 147.4897 15.27586322    14

Suivez STARLINK-35899 en temps réel avec AllMySat

Download on the App Store